Back to catalog

ONEWEB-0027

AliveCommunicationsPO
NORAD 45432·PAYLOAD·🇬🇧 United Kingdom

Launched Mar 21, 2020 from Baikonur Cosmodrome

Loading…

Next Passes (next 24 hours)

TLE

FreshSource: CelesTrak SupGP

Epoch: Sep 14, 2026, 10:05 UTC

1 45432C 20020J   26257.42028194 -.00002518  00000+0 -64938-2 0  2570
2 45432  87.9205 348.1459 0001487 103.3899 305.1562 13.17648428    15

Track ONEWEB-0027 in real time with AllMySat

Download on the App Store